Stündliche Wetter Holoholnya

Heute, 21 Juni, Montag

Zeit Temperatur Niederschläge Wind Luftdruck Luftfeuchtigkeit
00:00 +20°C° 0.1 mm 2 m/S 750 mmHg 88%
01:00 +20°C° 0.1 mm 2 m/S 750 mmHg 90%
02:00 +19°C° 0 mm 2 m/S 750 mmHg 93%
03:00 +21°C° 0 mm 1 m/S 750 mmHg 91%
04:00 +21°C° 0 mm 1 m/S 750 mmHg 89%
05:00 +22°C° 0 mm 1 m/S 750 mmHg 87%
06:00 +23°C° 0 mm 1 m/S 750 mmHg 81%
07:00 +24°C° 0 mm 1 m/S 750 mmHg 75%
08:00 +26°C° 0 mm 1 m/S 751 mmHg 70%
09:00 +27°C° 0 mm 2 m/S 751 mmHg 64%
10:00 +29°C° 0 mm 2 m/S 751 mmHg 59%
11:00 +30°C° 0 mm 2 m/S 750 mmHg 53%
12:00 +31°C° 0 mm 2 m/S 750 mmHg 50%
13:00 +31°C° 0 mm 2 m/S 750 mmHg 48%
14:00 +31°C° 0 mm 3 m/S 750 mmHg 44%
15:00 +31°C° 0 mm 2 m/S 750 mmHg 47%
16:00 +30°C° 0 mm 2 m/S 750 mmHg 51%
17:00 +29°C° 0 mm 2 m/S 750 mmHg 54%
18:00 +28°C° 0 mm 1 m/S 750 mmHg 62%
19:00 +26°C° 0 mm 1 m/S 750 mmHg 69%
20:00 +24°C° 0 mm 1 m/S 750 mmHg 76%
21:00 +23°C° 0 mm 1 m/S 750 mmHg 78%
22:00 +22°C° 0 mm 1 m/S 750 mmHg 80%
23:00 +21°C° 0 mm 1 m/S 750 mmHg 82%

Morgen, 22 Juni, Dienstag

Zeit Temperatur Niederschläge Wind Luftdruck Luftfeuchtigkeit
00:00 +21°C° 0 mm 1 m/S 750 mmHg 85%
01:00 +21°C° 0 mm 1 m/S 750 mmHg 88%
02:00 +19°C° 0 mm 2 m/S 750 mmHg 91%
03:00 +21°C° 0 mm 1 m/S 750 mmHg 89%
04:00 +22°C° 0 mm 1 m/S 750 mmHg 88%
05:00 +22°C° 0 mm 1 m/S 750 mmHg 87%
06:00 +24°C° 0 mm 1 m/S 750 mmHg 80%
07:00 +26°C° 0 mm 2 m/S 750 mmHg 74%
08:00 +28°C° 0 mm 2 m/S 750 mmHg 67%
09:00 +29°C° 0 mm 2 m/S 750 mmHg 61%
10:00 +30°C° 0 mm 3 m/S 750 mmHg 54%
11:00 +33°C° 0 mm 3 m/S 750 mmHg 48%
12:00 +33°C° 0 mm 3 m/S 750 mmHg 46%
13:00 +34°C° 0 mm 3 m/S 750 mmHg 43%
14:00 +34°C° 0 mm 3 m/S 750 mmHg 41%
15:00 +34°C° 0 mm 3 m/S 750 mmHg 43%
16:00 +33°C° 0 mm 3 m/S 750 mmHg 46%
17:00 +32°C° 0 mm 2 m/S 750 mmHg 48%
18:00 +30°C° 0 mm 2 m/S 749 mmHg 57%
19:00 +27°C° 0 mm 2 m/S 749 mmHg 65%
20:00 +25°C° 0 mm 2 m/S 749 mmHg 74%
21:00 +24°C° 0 mm 2 m/S 749 mmHg 77%
22:00 +23°C° 0 mm 2 m/S 750 mmHg 80%
23:00 +21°C° 0 mm 2 m/S 750 mmHg 83%

übermorgen, 23 Juni, Mittwoch

Zeit Temperatur Niederschläge Wind Luftdruck Luftfeuchtigkeit
00:00 +21°C° 0 mm 2 m/S 750 mmHg 86%
01:00 +21°C° 0 mm 2 m/S 750 mmHg 90%
02:00 +20°C° 0 mm 2 m/S 750 mmHg 93%
03:00 +21°C° 0 mm 2 m/S 750 mmHg 91%
04:00 +23°C° 0 mm 1 m/S 751 mmHg 89%
05:00 +23°C° 0 mm 1 m/S 751 mmHg 87%
06:00 +25°C° 0 mm 1 m/S 751 mmHg 80%
07:00 +27°C° 0 mm 2 m/S 751 mmHg 73%
08:00 +29°C° 0 mm 2 m/S 751 mmHg 65%
09:00 +30°C° 0 mm 2 m/S 751 mmHg 58%
10:00 +31°C° 0 mm 3 m/S 751 mmHg 50%
11:00 +34°C° 0 mm 3 m/S 751 mmHg 43%
12:00 +34°C° 0 mm 3 m/S 751 mmHg 41%
13:00 +35°C° 0 mm 3 m/S 750 mmHg 39%
14:00 +35°C° 0 mm 3 m/S 750 mmHg 37%
15:00 +34°C° 0 mm 3 m/S 750 mmHg 41%
16:00 +34°C° 0 mm 2 m/S 750 mmHg 45%
17:00 +34°C° 0 mm 2 m/S 750 mmHg 49%
18:00 +30°C° 0 mm 2 m/S 750 mmHg 56%
19:00 +28°C° 0 mm 1 m/S 750 mmHg 63%
20:00 +26°C° 0 mm 1 m/S 750 mmHg 71%
21:00 +25°C° 0 mm 1 m/S 750 mmHg 72%
22:00 +25°C° 0 mm 2 m/S 750 mmHg 74%
23:00 +24°C° 0 mm 2 m/S 750 mmHg 75%

24 Juni, Donnerstag

Zeit Temperatur Niederschläge Wind Luftdruck Luftfeuchtigkeit
00:00 +23°C° 0 mm 2 m/S 750 mmHg 77%
01:00 +23°C° 0 mm 2 m/S 750 mmHg 79%
02:00 +21°C° 0 mm 2 m/S 750 mmHg 80%
03:00 +23°C° 0 mm 2 m/S 750 mmHg 80%
04:00 +23°C° 0 mm 2 m/S 750 mmHg 80%
05:00 +24°C° 0 mm 1 m/S 750 mmHg 80%
06:00 +26°C° 0 mm 1 m/S 750 mmHg 72%
07:00 +28°C° 0 mm 1 m/S 750 mmHg 65%
08:00 +29°C° 0 mm 1 m/S 750 mmHg 57%
09:00 +31°C° 0 mm 2 m/S 750 mmHg 53%
10:00 +32°C° 0 mm 2 m/S 750 mmHg 48%
11:00 +34°C° 0 mm 2 m/S 750 mmHg 43%
12:00 +34°C° 0 mm 2 m/S 750 mmHg 41%
13:00 +35°C° 0 mm 2 m/S 749 mmHg 39%
14:00 +35°C° 0 mm 3 m/S 749 mmHg 37%
15:00 +35°C° 0 mm 3 m/S 749 mmHg 41%
16:00 +34°C° 0 mm 3 m/S 749 mmHg 44%
17:00 +34°C° 0 mm 3 m/S 748 mmHg 48%
18:00 +30°C° 0 mm 2 m/S 748 mmHg 56%
19:00 +28°C° 0 mm 1 m/S 748 mmHg 65%
20:00 +26°C° 0 mm 1 m/S 747 mmHg 73%
21:00 +25°C° 0 mm 1 m/S 748 mmHg 74%
22:00 +24°C° 0 mm 1 m/S 748 mmHg 76%
23:00 +23°C° 0 mm 1 m/S 748 mmHg 77%

25 Juni, Freitag

Zeit Temperatur Niederschläge Wind Luftdruck Luftfeuchtigkeit
00:00 +23°C° 0 mm 1 m/S 748 mmHg 80%
01:00 +22°C° 0 mm 1 m/S 748 mmHg 84%
02:00 +19°C° 0 mm 0 m/S 747 mmHg 87%
03:00 +20°C° 0 mm 0 m/S 747 mmHg 86%
04:00 +23°C° 0 mm 1 m/S 747 mmHg 85%
05:00 +23°C° 0 mm 1 m/S 747 mmHg 84%
06:00 +25°C° 0 mm 1 m/S 747 mmHg 76%
07:00 +27°C° 0 mm 2 m/S 747 mmHg 69%
08:00 +29°C° 0 mm 2 m/S 747 mmHg 61%
09:00 +30°C° 0 mm 2 m/S 747 mmHg 56%
10:00 +32°C° 0 mm 2 m/S 747 mmHg 50%
11:00 +34°C° 0 mm 2 m/S 747 mmHg 44%
12:00 +35°C° 0 mm 3 m/S 747 mmHg 42%
13:00 +35°C° 0 mm 3 m/S 747 mmHg 40%
14:00 +35°C° 0 mm 3 m/S 746 mmHg 38%
15:00 +34°C° 0.1 mm 4 m/S 746 mmHg 46%
16:00 +32°C° 0.1 mm 4 m/S 746 mmHg 54%
17:00 +29°C° 0.1 mm 5 m/S 746 mmHg 61%
18:00 +26°C° 0.9 mm 4 m/S 746 mmHg 73%
19:00 +22°C° 0.9 mm 3 m/S 746 mmHg 84%
20:00 +19°C° 0.9 mm 2 m/S 747 mmHg 96%
21:00 +19°C° 0 mm 2 m/S 746 mmHg 96%
22:00 +19°C° 0 mm 2 m/S 746 mmHg 96%
23:00 +19°C° 0 mm 1 m/S 746 mmHg 96%

26 Juni, Samstag

Zeit Temperatur Niederschläge Wind Luftdruck Luftfeuchtigkeit
00:00 +19°C° 0 mm 1 m/S 746 mmHg 96%
01:00 +19°C° 0 mm 1 m/S 746 mmHg 96%
02:00 +18°C° 0 mm 2 m/S 745 mmHg 96%
03:00 +20°C° 0 mm 1 m/S 745 mmHg 95%
04:00 +20°C° 0 mm 1 m/S 746 mmHg 94%
05:00 +21°C° 0 mm 1 m/S 746 mmHg 93%
06:00 +21°C° 0 mm 0 m/S 746 mmHg 84%
07:00 +22°C° 0 mm 0 m/S 745 mmHg 76%
08:00 +24°C° 0 mm 0 m/S 745 mmHg 68%
09:00 +26°C° 0 mm 0 m/S 745 mmHg 62%
10:00 +29°C° 0 mm 1 m/S 745 mmHg 57%
11:00 +31°C° 0 mm 1 m/S 745 mmHg 51%
12:00 +31°C° 0 mm 1 m/S 745 mmHg 49%
13:00 +32°C° 0 mm 1 m/S 745 mmHg 48%
14:00 +32°C° 0 mm 1 m/S 745 mmHg 46%
15:00 +31°C° 0 mm 1 m/S 745 mmHg 52%
16:00 +30°C° 0 mm 1 m/S 745 mmHg 59%
17:00 +28°C° 0 mm 1 m/S 744 mmHg 66%
18:00 +27°C° 0.1 mm 1 m/S 745 mmHg 72%
19:00 +26°C° 0.1 mm 2 m/S 745 mmHg 79%
20:00 +24°C° 0.1 mm 2 m/S 745 mmHg 85%
21:00 +23°C° 0.1 mm 2 m/S 745 mmHg 87%
22:00 +21°C° 0.1 mm 2 m/S 745 mmHg 89%
23:00 +21°C° 0.1 mm 2 m/S 746 mmHg 91%
Mehr zeigen

Wir brauchen deine Erlaubnis

Meteoprog und unser Service Anbieter werden persönliche Daten aufbewahren, so wie Cookies, Geräte Bezeichnung oder ähnliche Technologien von deinem Gerät und Prozess, so wie Persönliche Daten Inhalte und Werbungen, genauso wie social Media und den Verkehr zu analysieren.

  • Aufbewahrung und/oder Zugang zu deiner Geräte Informationen.

    Cookies, Geräte Bezeichnung oder andere Informationen, können aufbewahrt oder Zugang zu deinem Gerät erhalten, für den Grund, der oben angegeben wird.

  • Personalisierte Werbung und Inhalte, Messungen, Einblick in das Publikum und Produkt Entwicklung.

    Werbungen und Inhalte können personalisiert werden, basierend auf ein Profil. Mehr Daten können besser personalisierte Werbungen und Inhalte hinzufügen. Werbung und Inhalte können gezeigt und gemessen werden. Einblicke über das Publikum, welche die Werbung gesehen haben und den Inhalt, können abgeleitet werden. So wie Daten können genutzt werden, um es zu verbessern oder die Benutzer Erfahrung zu verbessern das System und die Software.

Wenn du “Ich stimme zu” klickst, erlaubst du uns, die Cookies zu benutzen die Geräte Bezeichnung, den Web oder ähnliche Technologien zu benutzen. Deine Settings, können in deinem Gerät bei deinem Browser geändert werden.

Für den bestimmten Zweck, berechtigten Interessen beruhen darauf, mehr als auf den Inhalt. Du kannst mehr darüber in unseren Privaten und Cookie Politik lesen.